Regional Weather Roundup
Issued by NWS Memphis, TN

Home | Current Version | Previous Version | Text Only | Print | Product List | Glossary On
Versions: 1 2 3 4 5 6 7 8 9 10 11 12 13 14 15 16 17 18 19 20 21 22 23 24 25 26 27 28 29 30 31 32 33 34 35 36 37 38 39 40 41 42 43 44 45 46 47 48 49 50
000
ASUS44 KMEG 210600
RWRMEG
MEMPHIS CWA HOURLY WEATHER ROUNDUP
NATIONAL WEATHER SERVICE MEMPHIS TN
100 AM CDT SAT OCT 21 2017

...WEST TENNESSEE...

CITY           SKY/WX    TMP DP  RH WIND       PRES   REMARKS
MEMPHIS INTL   MOCLDY    65  54  67 SE9       30.09S
6HR MIN TEMP:  65; 6HR MAX TEMP:  71;

NWS MEMPHIS      N/A     60 N/A N/A MISG        N/A
JACKSON        PTCLDY    53  51  93 CALM      30.12F
6HR MIN TEMP:  52; 6HR MAX TEMP:  60;

DYERSBURG      MOCLDY    61  51  70 SE6       30.11F
6HR MIN TEMP:  56; 6HR MAX TEMP:  67;



...EASTERN ARKANSAS...

CITY           SKY/WX    TMP DP  RH WIND       PRES   REMARKS
JONESBORO      MOCLDY    60  55  83 SE7       30.07F
6HR MIN TEMP:  58; 6HR MAX TEMP:  68;

WEST MEMPHIS   CLOUDY    62  57  83 SE9       30.07F
6HR MIN TEMP:  60; 6HR MAX TEMP:  65;

BATESVILLE     CLOUDY    65  56  72 SE6       30.06S
6HR MIN TEMP:  62; 6HR MAX TEMP:  69;

NEWPORT        CLOUDY    63  56  78 SE9       30.06
6HR MIN TEMP:  61; 6HR MAX TEMP:  66;

WALNUT RIDGE   CLOUDY    61  54  77 SE9       30.07S
6HR MIN TEMP:  59; 6HR MAX TEMP:  68;

BLYTHEVILLE    CLOUDY    62  56  80 SE6       30.09F
6HR MIN TEMP:  60; 6HR MAX TEMP:  67;

SEARCY         CLOUDY    59  59 100 CALM      30.06S
6HR MIN TEMP:  59; 6HR MAX TEMP:  67;

STUTTGART      PTCLDY    63  57  81 SE8       30.06F
6HR MIN TEMP:  63; 6HR MAX TEMP:  71;

PINE BLUFF     PTCLDY    61  54  77 SE5       30.05F
6HR MIN TEMP:  57; 6HR MAX TEMP:  68;

MONTICELLO     MOCLDY    65  59  81 CALM      30.05F
6HR MIN TEMP:  62; 6HR MAX TEMP:  67;



...NORTH MISSISSIPPI...

CITY           SKY/WX    TMP DP  RH WIND       PRES   REMARKS
TUPELO         CLEAR     59  52  77 CALM      30.14S
6HR MIN TEMP:  57; 6HR MAX TEMP:  70;

OXFORD         CLEAR     61  54  77 SE7       30.13S
BATESVILLE     MOCLDY    59  56  90 SE3       30.11S
6HR MIN TEMP:  57; 6HR MAX TEMP:  65;

TUNICA           N/A    N/A N/A N/A SE5       30.09F
CLARKSDALE       N/A     64  63  94 SE5       30.09S
GREENWOOD      PTCLDY    63  57  81 E3        30.09F
6HR MIN TEMP:  63; 6HR MAX TEMP:  71;

COLUMBUS       CLEAR     56  56  99 SE3       30.13S
6HR MIN TEMP:  56; 6HR MAX TEMP:  66;

STARKVILLE     CLEAR     61  54  77 SE5       30.14S
GOLDEN TRIANGL CLEAR     61  54  77 SE6       30.14S
6HR MIN TEMP:  61; 6HR MAX TEMP:  72;



...SOUTHEAST MISSOURI...

CITY           SKY/WX    TMP DP  RH WIND       PRES   REMARKS
KENNETT        CLOUDY    57  54  88 CALM      30.08R
MALDEN         PTCLDY    55  50  82 SE3       30.10S
WEST PLAINS    MOCLDY    63  53  70 SE12      30.06S
6HR MIN TEMP:  63; 6HR MAX TEMP:  68;

POPLAR BLUFF   PTCLDY    59  53  80 SE5       30.07F
6HR MIN TEMP:  56; 6HR MAX TEMP:  66;

CAPE GIRARDEAU PTCLDY    55  48  77 S6        30.09F
6HR MIN TEMP:  55; 6HR MAX TEMP:  66;



...NORTHWEST ALABAMA...

CITY           SKY/WX    TMP DP  RH WIND       PRES   REMARKS
MUSCLE SHOALS  CLEAR     52  46  80 E3        30.18S
6HR MIN TEMP:  50; 6HR MAX TEMP:  63;



...MIDDLE TENNESSEE...

CITY           SKY/WX    TMP DP  RH WIND       PRES   REMARKS
NASHVILLE      CLOUDY    53  49  86 S3        30.18S
6HR MIN TEMP:  53; 6HR MAX TEMP:  68;

CLARKSVILLE    CLOUDY    52  49  89 CALM      30.15S
6HR MIN TEMP:  50; 6HR MAX TEMP:  63;



...WESTERN KENTUCKY...

CITY           SKY/WX    TMP DP  RH WIND       PRES   REMARKS
PADUCAH        PTCLDY    59  47  64 SE5       30.11S
6HR MIN TEMP:  55; 6HR MAX TEMP:  65;

FORT CAMPBELL  CLOUDY    55  49  81 SE3       30.15S
6HR MIN TEMP:  53; 6HR MAX TEMP:  65; 6HR PCP: TRACE;



...CENTRAL ARKANSAS...

CITY           SKY/WX    TMP DP  RH WIND       PRES   REMARKS
LITTLE ROCK    PTCLDY    58  57  97 CALM      30.05F
6HR MIN TEMP:  57; 6HR MAX TEMP:  68;



SKY/WX REPORTED AS FAIR MEANS FEW OR NO CLOUDS BELOW
12 THOUSAND FEET.




USA.gov is the U.S. government's official web portal to all federal, state and local government web resources and services.